Location: Boiro
(42.6475°N, 8.8834°W)
Time: 17:22:40
(UTC+01:00)

Altair - Pass Details

Date: 04 December 2021
Orbit: 1501 x 1683 km, 47.2° (Epoch: 25 January)

Event Time Altitude Azimuth Distance (km) Brightness Sun altitude
Rises 20:23:55 0° 281° (W) 4,716 11.2 -25.3°
Reaches altitude 10° 20:27:02 10° 284° (WNW) 3,712 10.4 -25.9°
Maximum altitude 20:36:20 68° 7° (N) 1,605 7.4 -27.6°
Enters shadow 20:38:46 51° 67° (ENE) 1,827 7.4 -28.0°
Drops below altitude 10° 20:45:28 10° 91° (E) 3,651 - -29.3°
Sets 20:48:32 0° 94° (E) 4,635 - -29.8°
